Погода в Матурине

Венесуэла     9°44′49″N   63°10′03″W
темп.,
°C
ветер,
м/с
пор.,
м/с
влажн.,
%
обл.,
%
осадки,
мм/ч
давл.,
гПа
погр.,
м
5 марта, пт
пт523:00+22св26963 0.4 1014204
02:00+22св129725 0.7 101279
05:00+21ссв129732 0.3 101128
08:00+24всв248944 1.3 1013372
11:00+28в347492 0.9 1014808
14:00+29всв457186 4.1 1010877
17:00+27всв477693 1.9 1009858
20:00+23св389468 3.3 1011338
6 марта, сб
сб623:00+22всв279717 0.2 1014264
02:00+23св3109452 0.6 1012535
05:00+22св3109487 0.4 1012417
08:00+23всв399194 0.8 1013594
11:00+29всв466695 0.5 10141122
14:00+30в466293 2.0 10101158
17:00+30всв6756100 0.1 10091360
20:00+24св3107893 0.1 1012466
7 марта, вс
вс723:00+22св279132 0.0 1014257
02:00+22ссв269724 0.1 1012190
05:00+22св289781 0.6 1012287
08:00+25всв498763 1.1 1014588
11:00+30всв575927 0.3 10151312
14:00+33всв574954 0.6 10111709
17:00+30всв6856100 0.1 10101448
20:00+25всв4107754 0.1 1012571
8 марта, пн
пн823:00+23всв2109544 0.3 1014518
02:00+23св289646 0.6 1013398
05:00+22св269666 0.3 1013210
08:00+24всв378742 0.6 1015605
11:00+30всв575785 0.5 10151455
14:00+32всв574587 0.6 10121905
17:00+30св685689 0.1 10101531
20:00+24всв397968 0.1 1013450
9 марта, вт
вт923:00+23св398987 0.3 1014557
02:00+22св389691 0.6 1013350
05:00+21св269792 0.0 1013196
08:00+24св488280 0.0 1014587
11:00+29всв5752100 0.0 10141496
14:00+32всв574299 0.0 10111852
17:00+29св6851100 0.0 10091176
20:00+24всв3978100 0.0 1012381